When you browse on this site, cookies collect data to enhance your experience and personalize the content and advertising you see.
Visit our Privacy Policy to learn more. By continuing to use the site, you agree to this use of cookies and data.

Meteo pe oră la Dziedziule

Astăzi, 19 Septembrie, Sâmbătă

Timp Temperatura Precipitaţii Vânt Presiune Umiditate
00:00 +8°C° 0 mm 3 m/s 754 mmHg 86%
01:00 +7°C° 0 mm 3 m/s 754 mmHg 88%
02:00 +7°C° 0 mm 3 m/s 754 mmHg 90%
03:00 +7°C° 0 mm 3 m/s 754 mmHg 91%
04:00 +7°C° 0 mm 3 m/s 753 mmHg 92%
05:00 +7°C° 0 mm 3 m/s 753 mmHg 93%
06:00 +8°C° 0 mm 3 m/s 753 mmHg 89%
07:00 +8°C° 0 mm 4 m/s 753 mmHg 86%
08:00 +10°C° 0 mm 4 m/s 753 mmHg 81%
09:00 +12°C° 0 mm 4 m/s 753 mmHg 77%
10:00 +13°C° 0 mm 4 m/s 753 mmHg 73%
11:00 +15°C° 0 mm 4 m/s 753 mmHg 69%
12:00 +17°C° 0 mm 4 m/s 753 mmHg 68%
13:00 +18°C° 0 mm 4 m/s 753 mmHg 67%
14:00 +19°C° 0 mm 4 m/s 753 mmHg 65%
15:00 +19°C° 0 mm 3 m/s 752 mmHg 68%
16:00 +18°C° 0 mm 3 m/s 752 mmHg 71%
17:00 +18°C° 0 mm 3 m/s 752 mmHg 74%
18:00 +16°C° 0 mm 3 m/s 752 mmHg 80%
19:00 +15°C° 0 mm 2 m/s 752 mmHg 87%
20:00 +13°C° 0 mm 2 m/s 752 mmHg 93%
21:00 +13°C° 0 mm 2 m/s 752 mmHg 94%
22:00 +12°C° 0 mm 2 m/s 753 mmHg 94%
23:00 +12°C° 0 mm 2 m/s 753 mmHg 95%

Mâine, 20 Septembrie, Duminică

Timp Temperatura Precipitaţii Vânt Presiune Umiditate
00:00 +10°C° 0 mm 2 m/s 753 mmHg 94%
01:00 +9°C° 0 mm 2 m/s 753 mmHg 93%
02:00 +9°C° 0 mm 2 m/s 753 mmHg 92%
03:00 +8°C° 0 mm 2 m/s 753 mmHg 92%
04:00 +7°C° 0 mm 2 m/s 753 mmHg 93%
05:00 +7°C° 0 mm 2 m/s 753 mmHg 93%
06:00 +8°C° 0 mm 2 m/s 753 mmHg 89%
07:00 +9°C° 0 mm 1 m/s 754 mmHg 86%
08:00 +10°C° 0 mm 1 m/s 754 mmHg 82%
09:00 +12°C° 0 mm 1 m/s 754 mmHg 75%
10:00 +14°C° 0 mm 1 m/s 754 mmHg 67%
11:00 +15°C° 0 mm 2 m/s 754 mmHg 60%
12:00 +16°C° 0 mm 1 m/s 754 mmHg 57%
13:00 +18°C° 0 mm 1 m/s 753 mmHg 54%
14:00 +19°C° 0 mm 1 m/s 753 mmHg 52%
15:00 +19°C° 0 mm 1 m/s 753 mmHg 55%
16:00 +19°C° 0 mm 1 m/s 752 mmHg 58%
17:00 +19°C° 0 mm 1 m/s 752 mmHg 62%
18:00 +16°C° 0 mm 1 m/s 752 mmHg 66%
19:00 +14°C° 0 mm 1 m/s 752 mmHg 71%
20:00 +12°C° 0 mm 1 m/s 752 mmHg 76%
21:00 +12°C° 0 mm 2 m/s 752 mmHg 78%
22:00 +10°C° 0 mm 2 m/s 752 mmHg 80%
23:00 +10°C° 0 mm 2 m/s 752 mmHg 82%

Poimâine, 21 Septembrie, Luni

Timp Temperatura Precipitaţii Vânt Presiune Umiditate
00:00 +10°C° 0 mm 2 m/s 752 mmHg 84%
01:00 +10°C° 0 mm 2 m/s 752 mmHg 87%
02:00 +9°C° 0 mm 2 m/s 752 mmHg 89%
03:00 +9°C° 0 mm 2 m/s 752 mmHg 90%
04:00 +9°C° 0 mm 2 m/s 751 mmHg 91%
05:00 +9°C° 0 mm 2 m/s 751 mmHg 92%
06:00 +10°C° 0 mm 2 m/s 751 mmHg 89%
07:00 +12°C° 0 mm 2 m/s 751 mmHg 87%
08:00 +13°C° 0 mm 2 m/s 751 mmHg 84%
09:00 +15°C° 0 mm 2 m/s 751 mmHg 76%
10:00 +17°C° 0 mm 3 m/s 751 mmHg 68%
11:00 +19°C° 0 mm 3 m/s 751 mmHg 60%
12:00 +19°C° 0 mm 3 m/s 751 mmHg 56%
13:00 +20°C° 0 mm 3 m/s 751 mmHg 52%
14:00 +21°C° 0 mm 3 m/s 750 mmHg 49%
15:00 +21°C° 0 mm 2 m/s 750 mmHg 53%
16:00 +20°C° 0 mm 2 m/s 750 mmHg 58%
17:00 +20°C° 0 mm 2 m/s 749 mmHg 62%
18:00 +18°C° 0 mm 2 m/s 749 mmHg 67%
19:00 +16°C° 0 mm 2 m/s 749 mmHg 71%
20:00 +15°C° 0 mm 2 m/s 749 mmHg 76%
21:00 +14°C° 0 mm 2 m/s 749 mmHg 78%
22:00 +14°C° 0 mm 2 m/s 749 mmHg 79%
23:00 +13°C° 0 mm 2 m/s 748 mmHg 81%

22 Septembrie, Marţi

Timp Temperatura Precipitaţii Vânt Presiune Umiditate
00:00 +13°C° 0 mm 2 m/s 748 mmHg 83%
01:00 +12°C° 0 mm 2 m/s 748 mmHg 85%
02:00 +12°C° 0 mm 2 m/s 748 mmHg 87%
03:00 +12°C° 0 mm 2 m/s 748 mmHg 87%
04:00 +10°C° 0 mm 2 m/s 747 mmHg 88%
05:00 +10°C° 0 mm 2 m/s 747 mmHg 88%
06:00 +12°C° 0 mm 2 m/s 747 mmHg 84%
07:00 +12°C° 0 mm 3 m/s 747 mmHg 80%
08:00 +13°C° 0 mm 3 m/s 748 mmHg 77%
09:00 +16°C° 0 mm 3 m/s 748 mmHg 70%
10:00 +18°C° 0 mm 3 m/s 747 mmHg 64%
11:00 +20°C° 0 mm 3 m/s 747 mmHg 58%
12:00 +22°C° 0 mm 4 m/s 747 mmHg 55%
13:00 +23°C° 0 mm 4 m/s 747 mmHg 52%
14:00 +25°C° 0 mm 5 m/s 746 mmHg 49%
15:00 +23°C° 0 mm 4 m/s 746 mmHg 53%
16:00 +24°C° 0 mm 3 m/s 746 mmHg 56%
17:00 +22°C° 0 mm 3 m/s 745 mmHg 60%
18:00 +21°C° 0 mm 3 m/s 745 mmHg 63%
19:00 +19°C° 0 mm 3 m/s 745 mmHg 67%
20:00 +18°C° 0 mm 3 m/s 745 mmHg 70%
21:00 +17°C° 0 mm 4 m/s 745 mmHg 71%
22:00 +17°C° 0 mm 4 m/s 745 mmHg 71%
23:00 +15°C° 0 mm 4 m/s 744 mmHg 71%

23 Septembrie, Miercuri

Timp Temperatura Precipitaţii Vânt Presiune Umiditate
00:00 +15°C° 0 mm 4 m/s 744 mmHg 72%
01:00 +15°C° 0 mm 4 m/s 744 mmHg 73%
02:00 +14°C° 0 mm 4 m/s 744 mmHg 73%
03:00 +14°C° 0 mm 3 m/s 743 mmHg 75%
04:00 +14°C° 0 mm 3 m/s 743 mmHg 77%
05:00 +13°C° 0 mm 3 m/s 743 mmHg 78%
06:00 +14°C° 0 mm 4 m/s 743 mmHg 77%
07:00 +14°C° 0 mm 4 m/s 743 mmHg 76%
08:00 +15°C° 0 mm 4 m/s 743 mmHg 74%
09:00 +18°C° 0 mm 4 m/s 742 mmHg 69%
10:00 +20°C° 0 mm 4 m/s 742 mmHg 63%
11:00 +22°C° 0 mm 4 m/s 742 mmHg 58%
12:00 +23°C° 0 mm 4 m/s 742 mmHg 55%
13:00 +23°C° 0 mm 4 m/s 742 mmHg 53%
14:00 +25°C° 0 mm 4 m/s 741 mmHg 51%
15:00 +25°C° 0 mm 3 m/s 741 mmHg 55%
16:00 +24°C° 0 mm 3 m/s 741 mmHg 59%
17:00 +22°C° 0 mm 3 m/s 740 mmHg 63%
18:00 +21°C° 0 mm 3 m/s 740 mmHg 66%
19:00 +20°C° 0 mm 3 m/s 740 mmHg 69%
20:00 +18°C° 0 mm 3 m/s 740 mmHg 73%
21:00 +18°C° 0 mm 3 m/s 740 mmHg 73%
22:00 +17°C° 0 mm 3 m/s 740 mmHg 73%
23:00 +17°C° 0 mm 3 m/s 740 mmHg 74%

24 Septembrie, Joi

Timp Temperatura Precipitaţii Vânt Presiune Umiditate
00:00 +16°C° 0 mm 3 m/s 740 mmHg 75%
01:00 +16°C° 0 mm 3 m/s 740 mmHg 75%
02:00 +16°C° 0 mm 3 m/s 740 mmHg 76%
03:00 +14°C° 0 mm 3 m/s 740 mmHg 78%
04:00 +14°C° 0 mm 3 m/s 740 mmHg 79%
05:00 +14°C° 0 mm 3 m/s 740 mmHg 80%
06:00 +14°C° 0 mm 3 m/s 740 mmHg 79%
07:00 +16°C° 0 mm 3 m/s 740 mmHg 77%
08:00 +15°C° 0 mm 4 m/s 740 mmHg 75%
09:00 +18°C° 0 mm 3 m/s 740 mmHg 72%
10:00 +19°C° 0 mm 3 m/s 740 mmHg 68%
11:00 +20°C° 0 mm 3 m/s 740 mmHg 65%
12:00 +21°C° 0.1 mm 3 m/s 740 mmHg 64%
13:00 +22°C° 0.1 mm 3 m/s 740 mmHg 64%
14:00 +24°C° 0.1 mm 3 m/s 740 mmHg 63%
15:00 +22°C° 0.1 mm 3 m/s 740 mmHg 65%
16:00 +23°C° 0.1 mm 2 m/s 740 mmHg 68%
17:00 +23°C° 0.1 mm 2 m/s 740 mmHg 70%
18:00 +20°C° 0.4 mm 2 m/s 740 mmHg 76%
19:00 +19°C° 0.4 mm 2 m/s 740 mmHg 82%
20:00 +18°C° 0.4 mm 2 m/s 740 mmHg 88%
21:00 +17°C° 0 mm 2 m/s 740 mmHg 89%
22:00 +17°C° 0 mm 2 m/s 740 mmHg 91%
23:00 +16°C° 0 mm 2 m/s 740 mmHg 93%
Arată mai mult